Timestamp (UTC),Height (m)
2024-03-23T22:15:00Z,3.80
2024-03-23T22:30:00Z,3.79
2024-03-23T22:45:00Z,3.79
2024-03-23T23:00:00Z,3.80
2024-03-23T23:15:00Z,3.79
2024-03-23T23:30:00Z,3.79
2024-03-23T23:45:00Z,3.79
2024-03-24T00:00:00Z,3.80
2024-03-24T00:15:00Z,3.81
2024-03-24T00:30:00Z,3.81
2024-03-24T00:45:00Z,3.82
2024-03-24T01:00:00Z,3.81
2024-03-24T01:15:00Z,3.80
2024-03-24T01:30:00Z,3.80
2024-03-24T01:45:00Z,3.79
2024-03-24T02:00:00Z,3.79
2024-03-24T02:15:00Z,3.79
2024-03-24T02:30:00Z,3.80
2024-03-24T02:45:00Z,3.80
2024-03-24T03:00:00Z,3.80
2024-03-24T03:15:00Z,3.80
2024-03-24T03:30:00Z,3.79
2024-03-24T03:45:00Z,3.80
2024-03-24T04:00:00Z,3.80
2024-03-24T04:15:00Z,3.80
2024-03-24T04:30:00Z,3.78
2024-03-24T04:45:00Z,3.77
2024-03-24T05:00:00Z,3.77
2024-03-24T05:15:00Z,3.80
2024-03-24T05:30:00Z,3.79
2024-03-24T05:45:00Z,3.80
2024-03-24T06:00:00Z,3.79
2024-03-24T06:15:00Z,3.77
2024-03-24T06:30:00Z,3.79
2024-03-24T06:45:00Z,3.81
2024-03-24T07:00:00Z,3.80
2024-03-24T07:15:00Z,3.80
2024-03-24T07:30:00Z,3.81
2024-03-24T07:45:00Z,3.81
2024-03-24T08:00:00Z,3.81
2024-03-24T08:15:00Z,3.81
2024-03-24T08:30:00Z,3.80
2024-03-24T08:45:00Z,3.80
2024-03-24T09:00:00Z,3.80
2024-03-24T09:15:00Z,3.77
2024-03-24T09:30:00Z,3.76
2024-03-24T09:45:00Z,3.75
2024-03-24T10:00:00Z,3.76
2024-03-24T10:15:00Z,3.76
2024-03-24T10:30:00Z,3.75
2024-03-24T10:45:00Z,3.75
2024-03-24T11:00:00Z,3.75
2024-03-24T11:15:00Z,3.75
2024-03-24T11:30:00Z,3.74
2024-03-24T11:45:00Z,3.75
2024-03-24T12:00:00Z,3.75
2024-03-24T12:15:00Z,3.75
2024-03-24T12:30:00Z,3.75
2024-03-24T12:45:00Z,3.75
2024-03-24T13:00:00Z,3.75
2024-03-24T13:15:00Z,3.75
2024-03-24T13:30:00Z,3.75
2024-03-24T13:45:00Z,3.76
2024-03-24T14:00:00Z,3.76
2024-03-24T14:15:00Z,3.76
2024-03-24T14:30:00Z,3.76
2024-03-24T14:45:00Z,3.76
2024-03-24T15:00:00Z,3.76
2024-03-24T15:15:00Z,3.75
2024-03-24T15:30:00Z,3.75
2024-03-24T15:45:00Z,3.75
2024-03-24T16:00:00Z,3.74
2024-03-24T16:15:00Z,3.75
2024-03-24T16:30:00Z,3.75
2024-03-24T16:45:00Z,3.77
2024-03-24T17:00:00Z,3.76
2024-03-24T17:15:00Z,3.76
2024-03-24T17:30:00Z,3.76
2024-03-24T17:45:00Z,3.76
2024-03-24T18:00:00Z,3.76
2024-03-24T18:15:00Z,3.77
2024-03-24T18:30:00Z,3.77
2024-03-24T18:45:00Z,3.76
2024-03-24T19:00:00Z,3.76
2024-03-24T19:15:00Z,3.76
2024-03-24T19:30:00Z,3.76
2024-03-24T19:45:00Z,3.76
2024-03-24T20:00:00Z,3.75
2024-03-24T20:15:00Z,3.75
2024-03-24T20:30:00Z,3.75
2024-03-24T20:45:00Z,3.75
2024-03-24T21:00:00Z,3.76
2024-03-24T21:15:00Z,3.76
2024-03-24T21:30:00Z,3.76
2024-03-24T21:45:00Z,3.76
2024-03-24T22:00:00Z,3.76
2024-03-24T22:15:00Z,3.76
2024-03-24T22:30:00Z,3.76
2024-03-24T22:45:00Z,3.76
2024-03-24T23:00:00Z,3.75
2024-03-24T23:15:00Z,3.75
2024-03-24T23:30:00Z,3.75
2024-03-24T23:45:00Z,3.75
2024-03-25T00:00:00Z,3.75
2024-03-25T00:15:00Z,3.75
2024-03-25T00:30:00Z,3.75
2024-03-25T00:45:00Z,3.75
2024-03-25T01:00:00Z,3.75
2024-03-25T01:15:00Z,3.75
2024-03-25T01:30:00Z,3.76
2024-03-25T01:45:00Z,3.75
2024-03-25T02:00:00Z,3.75
2024-03-25T02:15:00Z,3.76
2024-03-25T02:30:00Z,3.75
2024-03-25T02:45:00Z,3.75
2024-03-25T03:00:00Z,3.75
2024-03-25T03:15:00Z,3.75
2024-03-25T03:30:00Z,3.75
2024-03-25T03:45:00Z,3.75
2024-03-25T04:00:00Z,3.75
2024-03-25T04:15:00Z,3.75
2024-03-25T04:30:00Z,3.75
2024-03-25T04:45:00Z,3.75
2024-03-25T05:00:00Z,3.75
2024-03-25T05:15:00Z,3.76
2024-03-25T05:30:00Z,3.77
2024-03-25T05:45:00Z,3.76
2024-03-25T06:00:00Z,3.75
2024-03-25T06:15:00Z,3.75
2024-03-25T06:30:00Z,3.75
2024-03-25T06:45:00Z,3.75
2024-03-25T07:00:00Z,3.76
2024-03-25T07:15:00Z,3.76
2024-03-25T07:30:00Z,3.76
2024-03-25T07:45:00Z,3.76
2024-03-25T08:00:00Z,3.76
2024-03-25T08:15:00Z,3.76
2024-03-25T08:30:00Z,3.75
2024-03-25T08:45:00Z,3.75
2024-03-25T09:00:00Z,3.75
2024-03-25T09:15:00Z,3.75
2024-03-25T09:30:00Z,3.75
2024-03-25T09:45:00Z,3.76
2024-03-25T10:00:00Z,3.76
2024-03-25T10:15:00Z,3.77
2024-03-25T10:30:00Z,3.77
2024-03-25T10:45:00Z,3.77
2024-03-25T11:00:00Z,3.77
2024-03-25T11:15:00Z,3.77
2024-03-25T11:30:00Z,3.77
2024-03-25T11:45:00Z,3.77
2024-03-25T12:00:00Z,3.78
2024-03-25T12:15:00Z,3.77
2024-03-25T12:30:00Z,3.77
2024-03-25T12:45:00Z,3.77
2024-03-25T13:00:00Z,3.78
2024-03-25T13:15:00Z,3.78
2024-03-25T13:30:00Z,3.78
2024-03-25T13:45:00Z,3.79
2024-03-25T14:00:00Z,3.79
2024-03-25T14:15:00Z,3.78
2024-03-25T14:30:00Z,3.78
2024-03-25T14:45:00Z,3.78
2024-03-25T15:00:00Z,3.78
2024-03-25T15:15:00Z,3.78
2024-03-25T15:30:00Z,3.78
2024-03-25T15:45:00Z,3.78
2024-03-25T16:00:00Z,3.78
2024-03-25T16:15:00Z,3.78
2024-03-25T16:30:00Z,3.79
2024-03-25T16:45:00Z,3.79
2024-03-25T17:00:00Z,3.78
2024-03-25T17:15:00Z,3.78
2024-03-25T17:30:00Z,3.79
2024-03-25T17:45:00Z,3.79
2024-03-25T18:00:00Z,3.79
2024-03-25T18:15:00Z,3.78
2024-03-25T18:30:00Z,3.78
2024-03-25T18:45:00Z,3.79
2024-03-25T19:00:00Z,3.81
2024-03-25T19:15:00Z,3.79
2024-03-25T19:30:00Z,3.79
2024-03-25T19:45:00Z,3.79
2024-03-25T20:00:00Z,3.79
2024-03-25T20:15:00Z,3.79
2024-03-25T20:30:00Z,3.79
2024-03-25T20:45:00Z,3.79
2024-03-25T21:00:00Z,3.79
2024-03-25T21:15:00Z,3.79
2024-03-25T21:30:00Z,3.79
2024-03-25T21:45:00Z,3.79
2024-03-25T22:00:00Z,3.79
2024-03-25T22:15:00Z,3.78
2024-03-25T22:30:00Z,3.78
2024-03-25T22:45:00Z,3.78
2024-03-25T23:00:00Z,3.78
2024-03-25T23:15:00Z,3.78
2024-03-25T23:30:00Z,3.79
2024-03-25T23:45:00Z,3.78
2024-03-26T00:00:00Z,3.78
2024-03-26T00:15:00Z,3.78
2024-03-26T00:30:00Z,3.78
2024-03-26T00:45:00Z,3.78
2024-03-26T01:00:00Z,3.78
2024-03-26T01:15:00Z,3.78
2024-03-26T01:30:00Z,3.78
2024-03-26T01:45:00Z,3.79
2024-03-26T02:00:00Z,3.79
2024-03-26T02:15:00Z,3.78
2024-03-26T02:30:00Z,3.78
2024-03-26T02:45:00Z,3.78
2024-03-26T03:00:00Z,3.78
2024-03-26T03:15:00Z,3.78
2024-03-26T03:30:00Z,3.78
2024-03-26T03:45:00Z,3.78
2024-03-26T04:00:00Z,3.78
2024-03-26T04:15:00Z,3.78
2024-03-26T04:30:00Z,3.78
2024-03-26T04:45:00Z,3.78
2024-03-26T05:00:00Z,3.77
2024-03-26T05:15:00Z,3.77
2024-03-26T05:30:00Z,3.77
2024-03-26T05:45:00Z,3.77
2024-03-26T06:00:00Z,3.77
2024-03-26T06:15:00Z,3.77
2024-03-26T06:30:00Z,3.77
2024-03-26T06:45:00Z,3.77
2024-03-26T07:00:00Z,3.77
2024-03-26T07:15:00Z,3.77
2024-03-26T07:30:00Z,3.77
2024-03-26T07:45:00Z,3.77
2024-03-26T08:00:00Z,3.76
2024-03-26T08:15:00Z,3.77
2024-03-26T08:30:00Z,3.78
2024-03-26T08:45:00Z,3.80
2024-03-26T09:00:00Z,3.80
2024-03-26T09:15:00Z,3.80
2024-03-26T09:30:00Z,3.77
2024-03-26T09:45:00Z,3.77
2024-03-26T10:00:00Z,3.77
2024-03-26T10:15:00Z,3.77
2024-03-26T10:30:00Z,3.77
2024-03-26T10:45:00Z,3.77
2024-03-26T11:00:00Z,3.77
2024-03-26T11:15:00Z,3.77
2024-03-26T11:30:00Z,3.77
2024-03-26T11:45:00Z,3.78
2024-03-26T12:00:00Z,3.77
2024-03-26T12:15:00Z,3.77
2024-03-26T12:30:00Z,3.78
2024-03-26T12:45:00Z,3.78
2024-03-26T13:00:00Z,3.78
2024-03-26T13:15:00Z,3.78
2024-03-26T13:30:00Z,3.77
2024-03-26T13:45:00Z,3.76
2024-03-26T14:00:00Z,3.76
2024-03-26T14:15:00Z,3.76
2024-03-26T14:30:00Z,3.76
2024-03-26T14:45:00Z,3.76
2024-03-26T15:00:00Z,3.76
2024-03-26T15:15:00Z,3.76
2024-03-26T15:30:00Z,3.76
2024-03-26T15:45:00Z,3.76
2024-03-26T16:00:00Z,3.76
2024-03-26T16:15:00Z,3.76
2024-03-26T16:30:00Z,3.76
2024-03-26T16:45:00Z,3.77
2024-03-26T17:00:00Z,3.78
2024-03-26T17:15:00Z,3.78
2024-03-26T17:30:00Z,3.79
2024-03-26T17:45:00Z,3.79
2024-03-26T18:00:00Z,3.79
2024-03-26T18:15:00Z,3.80
2024-03-26T18:30:00Z,3.80
2024-03-26T18:45:00Z,3.81
2024-03-26T19:00:00Z,3.82
2024-03-26T19:15:00Z,3.82
2024-03-26T19:30:00Z,3.83
2024-03-26T19:45:00Z,3.84
2024-03-26T20:00:00Z,3.87
2024-03-26T20:15:00Z,3.88
2024-03-26T20:30:00Z,3.91
2024-03-26T20:45:00Z,3.93
2024-03-26T21:00:00Z,3.95
2024-03-26T21:15:00Z,3.98
2024-03-26T21:30:00Z,4.04
2024-03-26T21:45:00Z,4.05
2024-03-26T22:00:00Z,4.06
2024-03-26T22:15:00Z,4.09
2024-03-26T22:30:00Z,4.11
2024-03-26T22:45:00Z,4.13
2024-03-26T23:00:00Z,4.16
2024-03-26T23:15:00Z,4.17
2024-03-26T23:30:00Z,4.18
2024-03-26T23:45:00Z,4.20
2024-03-27T00:00:00Z,4.21
2024-03-27T00:15:00Z,4.22
2024-03-27T00:30:00Z,4.23
2024-03-27T00:45:00Z,4.24
2024-03-27T01:00:00Z,4.27
2024-03-27T01:15:00Z,4.29
2024-03-27T01:30:00Z,4.27
2024-03-27T01:45:00Z,4.27
2024-03-27T02:00:00Z,4.27
2024-03-27T02:15:00Z,4.28
2024-03-27T02:30:00Z,4.28
2024-03-27T02:45:00Z,4.27
2024-03-27T03:00:00Z,4.27
2024-03-27T03:15:00Z,4.27
2024-03-27T03:30:00Z,4.26
2024-03-27T03:45:00Z,4.26
2024-03-27T04:00:00Z,4.27
2024-03-27T04:15:00Z,4.26
2024-03-27T04:30:00Z,4.26
2024-03-27T04:45:00Z,4.25
2024-03-27T05:00:00Z,4.25
2024-03-27T05:15:00Z,4.24
2024-03-27T05:30:00Z,4.23
2024-03-27T05:45:00Z,4.22
2024-03-27T06:00:00Z,4.21
2024-03-27T06:15:00Z,4.20
2024-03-27T06:30:00Z,4.19
2024-03-27T06:45:00Z,4.19
2024-03-27T07:00:00Z,4.18
2024-03-27T07:15:00Z,4.18
2024-03-27T07:30:00Z,4.17
2024-03-27T07:45:00Z,4.17
2024-03-27T08:00:00Z,4.16
2024-03-27T08:15:00Z,4.15
2024-03-27T08:30:00Z,4.15
2024-03-27T08:45:00Z,4.14
2024-03-27T09:00:00Z,4.13
2024-03-27T09:15:00Z,4.13
2024-03-27T09:30:00Z,4.13
2024-03-27T09:45:00Z,4.12
2024-03-27T10:00:00Z,4.12
2024-03-27T10:15:00Z,4.12
2024-03-27T10:30:00Z,4.11
2024-03-27T10:45:00Z,4.11
2024-03-27T11:00:00Z,4.11
2024-03-27T11:15:00Z,4.10
2024-03-27T11:30:00Z,4.10
2024-03-27T11:45:00Z,4.10
2024-03-27T12:00:00Z,4.11
2024-03-27T12:15:00Z,4.11
2024-03-27T12:30:00Z,4.12
2024-03-27T12:45:00Z,4.14
2024-03-27T13:00:00Z,4.15
2024-03-27T13:15:00Z,4.17
2024-03-27T13:30:00Z,4.19
2024-03-27T13:45:00Z,4.21
2024-03-27T14:00:00Z,4.22
2024-03-27T14:15:00Z,4.24
2024-03-27T14:30:00Z,4.25
2024-03-27T14:45:00Z,4.25
2024-03-27T15:00:00Z,4.26
2024-03-27T15:15:00Z,4.26
2024-03-27T15:30:00Z,4.27
2024-03-27T15:45:00Z,4.27
2024-03-27T16:00:00Z,4.27
2024-03-27T16:15:00Z,4.26
2024-03-27T16:30:00Z,4.26
2024-03-27T16:45:00Z,4.26
2024-03-27T17:00:00Z,4.25
2024-03-27T17:15:00Z,4.25
2024-03-27T17:30:00Z,4.24
2024-03-27T17:45:00Z,4.24
2024-03-27T18:00:00Z,4.23
2024-03-27T18:15:00Z,4.23
2024-03-27T18:30:00Z,4.23
2024-03-27T18:45:00Z,4.22
2024-03-27T19:00:00Z,4.22
2024-03-27T19:15:00Z,4.21
2024-03-27T19:30:00Z,4.21
2024-03-27T19:45:00Z,4.20
2024-03-27T20:00:00Z,4.20
2024-03-27T20:15:00Z,4.19
2024-03-27T20:30:00Z,4.18
2024-03-27T20:45:00Z,4.17
2024-03-27T21:00:00Z,4.17
2024-03-27T21:15:00Z,4.17
2024-03-27T21:30:00Z,4.16
2024-03-27T21:45:00Z,4.16
2024-03-27T22:00:00Z,4.15
2024-03-27T22:15:00Z,4.15
2024-03-27T22:30:00Z,4.14
2024-03-27T22:45:00Z,4.14
2024-03-27T23:00:00Z,4.13
2024-03-27T23:15:00Z,4.13
2024-03-27T23:30:00Z,4.13
2024-03-27T23:45:00Z,4.14
2024-03-28T00:00:00Z,4.14
2024-03-28T00:15:00Z,4.15
2024-03-28T00:30:00Z,4.17
2024-03-28T00:45:00Z,4.19
2024-03-28T01:00:00Z,4.21
2024-03-28T01:15:00Z,4.24
2024-03-28T01:30:00Z,4.32
2024-03-28T01:45:00Z,4.36
2024-03-28T02:00:00Z,4.40
2024-03-28T02:15:00Z,4.46
2024-03-28T02:30:00Z,4.52
2024-03-28T02:45:00Z,4.58
2024-03-28T03:00:00Z,4.64
2024-03-28T03:15:00Z,4.69
2024-03-28T03:30:00Z,4.75
2024-03-28T03:45:00Z,4.80
2024-03-28T04:00:00Z,4.86
2024-03-28T04:15:00Z,4.91
2024-03-28T04:30:00Z,4.95
2024-03-28T04:45:00Z,5.00
2024-03-28T05:00:00Z,5.05
2024-03-28T05:15:00Z,5.11
2024-03-28T05:30:00Z,5.18
2024-03-28T05:45:00Z,5.25
2024-03-28T06:00:00Z,5.32
2024-03-28T06:15:00Z,5.40
2024-03-28T06:30:00Z,5.47
2024-03-28T06:45:00Z,5.50
2024-03-28T07:00:00Z,5.53
2024-03-28T07:15:00Z,5.54
2024-03-28T07:30:00Z,5.54
2024-03-28T07:45:00Z,5.53
2024-03-28T08:00:00Z,5.51
2024-03-28T08:15:00Z,5.48
2024-03-28T08:30:00Z,5.45
2024-03-28T08:45:00Z,5.41
2024-03-28T09:00:00Z,5.37
2024-03-28T09:15:00Z,5.34
2024-03-28T09:30:00Z,5.30
2024-03-28T09:45:00Z,5.27
2024-03-28T10:00:00Z,5.24
2024-03-28T10:15:00Z,5.22
2024-03-28T10:30:00Z,5.21
2024-03-28T10:45:00Z,5.19
2024-03-28T11:00:00Z,5.17
2024-03-28T11:15:00Z,5.15
2024-03-28T11:30:00Z,5.13
2024-03-28T11:45:00Z,5.13
2024-03-28T12:00:00Z,5.13
2024-03-28T12:15:00Z,5.12
2024-03-28T12:30:00Z,5.10
2024-03-28T12:45:00Z,5.10
2024-03-28T13:00:00Z,5.09
2024-03-28T13:15:00Z,5.10
2024-03-28T13:30:00Z,5.12
2024-03-28T13:45:00Z,5.14
2024-03-28T14:00:00Z,5.18
2024-03-28T14:15:00Z,5.22
2024-03-28T14:30:00Z,5.26
2024-03-28T14:45:00Z,5.30
2024-03-28T15:00:00Z,5.36
2024-03-28T15:15:00Z,5.40
2024-03-28T15:30:00Z,5.45
2024-03-28T15:45:00Z,5.49
2024-03-28T16:00:00Z,5.52
2024-03-28T16:15:00Z,5.55
2024-03-28T16:30:00Z,5.58
2024-03-28T16:45:00Z,5.61
2024-03-28T17:00:00Z,5.63
2024-03-28T17:15:00Z,5.64
2024-03-28T17:30:00Z,5.64
2024-03-28T17:45:00Z,5.64
2024-03-28T18:00:00Z,5.63
2024-03-28T18:15:00Z,5.61
2024-03-28T18:30:00Z,5.58
2024-03-28T18:45:00Z,5.54
2024-03-28T19:00:00Z,5.50
2024-03-28T19:15:00Z,5.46
2024-03-28T19:30:00Z,5.42
2024-03-28T19:45:00Z,5.38
2024-03-28T20:00:00Z,5.34
2024-03-28T20:15:00Z,5.30
2024-03-28T20:30:00Z,5.27
2024-03-28T20:45:00Z,5.23
2024-03-28T21:00:00Z,5.20
2024-03-28T21:15:00Z,5.18
2024-03-28T21:30:00Z,5.15
2024-03-28T21:45:00Z,5.12